Terminal Aerodrome Forecast
Issued by NWS

Home | Current Version | Previous Version | Text Only | Print | Product List | Glossary On
Versions: 1 2 3 4 5 6 7 8 9 10 11 12 13 14 15 16 17 18 19 20 21
361
FTUS45 KREV 221540 AAA
TAFMMH
TAF AMD
KMMH 221540Z 2216/2312 24013G24KT P6SM VCSH SCT020 BKN035 OVC050
     FM221700 28016G30KT P6SM SCT030 BKN070
     FM222200 30016G32KT P6SM SCT050 BKN090
     FM230400 29012G20KT P6SM SCT030 SCT080 BKN150
     FM230900 28011KT P6SM SCT080 BKN140=

USA.gov is the U.S. government's official web portal to all federal, state and local government web resources and services.